EHKD

De Kooy Airfield

Airport
ICAO code
EHKD
IATA Code
DHR
Summary
ICAO Region
EUR
ICAO Territory
Location

Den Helder, Noord-Holland

Serving
De Kooy
Elevation
3 ft
Coordinates
52° 55' 24" N , 4° 46' 50" E
KCC
Metar
Observation
EHKD 251825Z AUTO 27007KT 9999 FEW036 OVC059 14/07 Q1011 BLU
Station
De Kooy
Date/Time
2022-09-25 18:25:00
Wind direction
270°
Wind speed
07 kts
Lowest cloud amount
few clouds
Temperature
14°C
Dew point
7°C
Humidity
62%
QNH
1011 hPa
Weather condition
n/a

De Kooy Airfield is an airfield 2.9 nm south of Den Helder, the Netherlands, named after the nearby hamlet De Kooy. It serves as both a civilian airport under the name Den Helder Airport and a naval airport under the name Maritiem Vliegkamp De Kooy.

Climatology

Temperate Marine climate/Oceanic climate (Köppen climate classification Cfb). Moderately cool summer and comparatively warm winter with a temperature range of only 14°C. Prevailing south-westerly winds from the Atlantic Ocean.

Runways

Designator Length Width Surface Rops
4/22 1275 30 CON No/No

Airport map

Aerial View

SKYbrary Partners:

Safety knowledge contributed by: